| time (UTC) | temp F | wind direction | speed MPH | gust MPH | rain 1hr in | rain 24hr in | rain mn in | humidity % | barometer mb |
| 20260504060213 | 59 | 297 | 1.0 | 2.0 | 0.00 | 0.00 | 0.00 | 51 | 1013.1 |
| 20260504050004 | 53 | 315 | 0.0 | 2.0 | 0.00 | 0.01 | 0.00 | 62 | 1013.1 |
| 20260504045616 | 52 | 315 | 0.0 | 2.0 | 0.00 | 0.01 | 0.00 | 62 | 1012.9 |
| 20260504044504 | 52 | 315 | 0.0 | 2.0 | 0.00 | 0.01 | 0.00 | 64 | 1013.1 |
| 20260504043815 | 51 | 315 | 0.0 | 2.0 | 0.00 | 0.01 | 0.00 | 64 | 1012.7 |
| 20260504042703 | 51 | 315 | 0.0 | 2.0 | 0.00 | 0.01 | 0.00 | 64 | 1012.8 |
| 20260504042015 | 51 | 315 | 0.0 | 2.0 | 0.00 | 0.01 | 0.00 | 64 | 1012.9 |
| 20260504040904 | 51 | 315 | 0.0 | 2.0 | 0.00 | 0.01 | 0.00 | 62 | 1012.8 |
| 20260504040215 | 51 | 315 | 1.0 | 4.0 | 0.00 | 0.01 | 0.00 | 61 | 1013.0 |
| 20260504035403 | 51 | 315 | 2.0 | 4.0 | 0.00 | 0.01 | 0.00 | 61 | 1012.6 |
| 20260504034503 | 51 | 315 | 1.0 | 2.0 | 0.00 | 0.01 | 0.00 | 63 | 1012.6 |
| 20260504033603 | 50 | 315 | 0.0 | 2.0 | 0.00 | 0.01 | 0.00 | 63 | 1012.5 |
| 20260504032703 | 50 | 315 | 0.0 | 2.0 | 0.00 | 0.01 | 0.00 | 63 | 1012.6 |
| 20260504031804 | 50 | 329 | 1.0 | 4.0 | 0.00 | 0.01 | 0.00 | 63 | 1012.6 |
| 20260504030904 | 49 | 360 | 2.0 | 4.0 | 0.00 | 0.01 | 0.00 | 65 | 1012.6 |
| 20260504030215 | 49 | 360 | 0.0 | 2.0 | 0.00 | 0.01 | 0.00 | 64 | 1012.6 |
| 20260504025403 | 49 | 360 | 0.0 | 2.0 | 0.00 | 0.01 | 0.00 | 64 | 1012.6 |
| 20260504024503 | 50 | 360 | 0.0 | 2.0 | 0.00 | 0.01 | 0.00 | 63 | 1012.5 |
| 20260504023603 | 50 | 360 | 0.0 | 2.0 | 0.00 | 0.01 | 0.00 | 63 | 1012.5 |
| 20260504022703 | 50 | 360 | 0.0 | 2.0 | 0.00 | 0.01 | 0.00 | 62 | 1012.3 |
| 20260504022016 | 51 | 360 | 2.0 | 2.0 | 0.00 | 0.01 | 0.00 | 61 | 1012.3 |
| 20260504020904 | 51 | 2 | 1.0 | 2.0 | 0.00 | 0.01 | 0.00 | 61 | 1012.6 |
| 20260504020004 | 51 | 22 | 1.0 | 2.0 | 0.00 | 0.01 | 0.00 | 61 | 1012.7 |
| 20260504015403 | 51 | 28 | 0.0 | 2.0 | 0.00 | 0.01 | 0.00 | 60 | 1012.4 |
| 20260504014715 | 51 | 39 | 1.0 | 2.0 | 0.00 | 0.01 | 0.00 | 60 | 1012.6 |
| 20260504013603 | 51 | 59 | 1.0 | 2.0 | 0.00 | 0.01 | 0.00 | 60 | 1012.6 |
| 20260504012703 | 51 | 67 | 1.0 | 2.0 | 0.00 | 0.01 | 0.00 | 60 | 1012.6 |
| 20260504012017 | 51 | 67 | 0.0 | 2.0 | 0.00 | 0.01 | 0.00 | 60 | 1012.4 |
| 20260504011115 | 51 | 58 | 1.0 | 4.0 | 0.00 | 0.01 | 0.00 | 59 | 1012.3 |
| 20260504010217 | 50 | 10 | 0.0 | 2.0 | 0.00 | 0.01 | 0.00 | 59 | 1012.5 |
| 20260504005613 | 50 | 360 | 0.0 | 2.0 | 0.00 | 0.01 | 0.00 | 60 | 1012.4 |
| 20260504004503 | 50 | 360 | 0.0 | 2.0 | 0.00 | 0.01 | 0.00 | 59 | 1012.3 |
| 20260504003603 | 51 | 360 | 0.0 | 2.0 | 0.00 | 0.01 | 0.00 | 59 | 1012.3 |
| 20260504002915 | 50 | 360 | 0.0 | 2.0 | 0.00 | 0.01 | 0.00 | 59 | 1012.5 |
| 20260504002018 | 51 | 5 | 0.0 | 2.0 | 0.00 | 0.01 | 0.00 | 58 | 1012.6 |
| 20260504001115 | 51 | 22 | 0.0 | 2.0 | 0.00 | 0.01 | 0.00 | 58 | 1012.5 |
| 20260504000219 | 51 | 22 | 0.0 | 2.0 | 0.00 | 0.01 | 0.00 | 57 | 1012.5 |
| 20260503235403 | 52 | 8 | 1.0 | 2.0 | 0.00 | 0.01 | 0.00 | 56 | 1012.6 |
| 20260503234716 | 52 | 326 | 2.0 | 6.0 | 0.00 | 0.01 | 0.00 | 55 | 1012.2 |
| 20260503233813 | 52 | 308 | 2.0 | 11.0 | 0.00 | 0.01 | 0.00 | 55 | 1012.6 |
| 20260503232916 | 53 | 315 | 5.0 | 8.0 | 0.00 | 0.01 | 0.00 | 55 | 1012.4 |
| 20260503231803 | 51 | 292 | 2.0 | 4.0 | 0.00 | 0.01 | 0.00 | 58 | 1012.5 |
| 20260503230904 | 51 | 292 | 0.0 | 2.0 | 0.00 | 0.01 | 0.00 | 58 | 1012.5 |
| 20260503230218 | 51 | 0 | 0.0 | 0.0 | 0.00 | 0.01 | 0.00 | 59 | 1012.6 |
| 20260503225614 | 51 | 292 | 0.0 | 2.0 | 0.00 | 0.01 | 0.00 | 59 | 1012.6 |
| 20260503224717 | 51 | 292 | 0.0 | 2.0 | 0.00 | 0.01 | 0.00 | 58 | 1012.4 |
| 20260503223814 | 52 | 303 | 1.0 | 4.0 | 0.00 | 0.04 | 0.00 | 57 | 1012.6 |
| 20260503222703 | 52 | 310 | 1.0 | 6.0 | 0.00 | 0.05 | 0.00 | 56 | 1012.5 |
| 20260503221804 | 53 | 309 | 3.0 | 11.0 | 0.00 | 0.05 | 0.00 | 54 | 1012.5 |
| 20260503221116 | 53 | 302 | 4.0 | 13.0 | 0.00 | 0.05 | 0.00 | 54 | 1012.7 |
| 20260503220213 | 53 | 302 | 8.0 | 11.0 | 0.00 | 0.05 | 0.00 | 54 | 1012.5 |
| 20260503215403 | 53 | 302 | 7.0 | 16.0 | 0.00 | 0.05 | 0.00 | 55 | 1012.5 |
| 20260503214503 | 53 | 305 | 8.0 | 16.0 | 0.00 | 0.05 | 0.00 | 54 | 1012.9 |
| 20260503213603 | 53 | 302 | 3.0 | 9.0 | 0.00 | 0.05 | 0.00 | 55 | 1012.7 |
| 20260503212703 | 53 | 310 | 4.0 | 11.0 | 0.00 | 0.05 | 0.00 | 56 | 1012.8 |
| 20260503212014 | 53 | 302 | 5.0 | 11.0 | 0.00 | 0.05 | 0.00 | 56 | 1012.6 |
| 20260503210904 | 53 | 303 | 4.0 | 11.0 | 0.00 | 0.05 | 0.00 | 55 | 1012.6 |
| 20260503210219 | 53 | 305 | 4.0 | 8.0 | 0.00 | 0.05 | 0.00 | 55 | 1012.7 |
| 20260503205616 | 53 | 309 | 5.0 | 11.0 | 0.00 | 0.05 | 0.05 | 56 | 1012.8 |
| 20260503204503 | 53 | 310 | 4.0 | 9.0 | 0.00 | 0.05 | 0.05 | 56 | 1012.7 |
| 20260503203603 | 53 | 303 | 6.0 | 11.0 | 0.00 | 0.05 | 0.05 | 56 | 1012.6 |
| 20260503202703 | 53 | 299 | 6.0 | 11.0 | 0.00 | 0.05 | 0.05 | 56 | 1012.9 |
| 20260503202015 | 53 | 301 | 4.0 | 15.0 | 0.00 | 0.05 | 0.05 | 56 | 1012.9 |
| 20260503200904 | 53 | 311 | 7.0 | 14.0 | 0.00 | 0.05 | 0.05 | 56 | 1013.0 |
| 20260503200004 | 53 | 299 | 5.0 | 11.0 | 0.00 | 0.05 | 0.05 | 56 | 1013.2 |
| 20260503195403 | 53 | 303 | 4.0 | 11.0 | 0.00 | 0.05 | 0.05 | 56 | 1012.9 |
| 20260503194503 | 54 | 300 | 4.0 | 9.0 | 0.00 | 0.05 | 0.05 | 56 | 1013.1 |
| 20260503193603 | 54 | 295 | 5.0 | 9.0 | 0.00 | 0.05 | 0.05 | 55 | 1012.9 |
| 20260503192913 | 54 | 309 | 5.0 | 11.0 | 0.00 | 0.05 | 0.05 | 54 | 1013.1 |
| 20260503191803 | 54 | 305 | 8.0 | 16.0 | 0.00 | 0.05 | 0.05 | 53 | 1012.9 |
| 20260503191113 | 54 | 305 | 6.0 | 11.0 | 0.00 | 0.05 | 0.05 | 54 | 1013.0 |
| 20260503190004 | 55 | 304 | 6.0 | 14.0 | 0.00 | 0.05 | 0.05 | 52 | 1012.8 |
| 20260503185403 | 55 | 305 | 8.0 | 14.0 | 0.00 | 0.05 | 0.05 | 52 | 1012.6 |
| 20260503184503 | 55 | 314 | 5.0 | 21.0 | 0.00 | 0.05 | 0.05 | 51 | 1012.5 |
| 20260503183817 | 55 | 313 | 9.0 | 21.0 | 0.00 | 0.05 | 0.05 | 51 | 1012.3 |
| 20260503182914 | 55 | 307 | 8.0 | 16.0 | 0.00 | 0.05 | 0.05 | 51 | 1012.5 |
| 20260503182016 | 55 | 304 | 8.0 | 16.0 | 0.00 | 0.05 | 0.05 | 52 | 1012.2 |
| 20260503181114 | 55 | 300 | 11.0 | 16.0 | 0.00 | 0.05 | 0.05 | 52 | 1012.1 |
| 20260503180004 | 55 | 321 | 8.0 | 18.0 | 0.00 | 0.05 | 0.05 | 52 | 1011.9 |
| 20260503175618 | 55 | 310 | 3.0 | 18.0 | 0.00 | 0.05 | 0.05 | 53 | 1011.6 |
| 20260503174503 | 55 | 301 | 10.0 | 17.0 | 0.00 | 0.05 | 0.05 | 53 | 1011.8 |
| 20260503173817 | 55 | 309 | 7.0 | 17.0 | 0.00 | 0.05 | 0.05 | 52 | 1011.7 |
| 20260503172914 | 55 | 312 | 8.0 | 15.0 | 0.00 | 0.05 | 0.05 | 52 | 1011.7 |
| 20260503171804 | 55 | 319 | 11.0 | 18.0 | 0.00 | 0.05 | 0.05 | 51 | 1011.5 |
| 20260503171114 | 56 | 307 | 4.0 | 16.0 | 0.00 | 0.05 | 0.05 | 51 | 1011.6 |
| 20260503170217 | 56 | 302 | 10.0 | 18.0 | 0.00 | 0.05 | 0.05 | 50 | 1011.4 |
| 20260503160217 | 59 | 312 | 3.0 | 21.0 | 0.00 | 0.05 | 0.05 | 45 | 1010.5 |
| 20260503150904 | 60 | 321 | 8.0 | 27.0 | 0.00 | 0.05 | 0.05 | 42 | 1010.5 |
| 20260503150218 | 58 | 315 | 9.0 | 18.0 | 0.00 | 0.05 | 0.05 | 46 | 1010.2 |
| 20260503130904 | 59 | 322 | 7.0 | 16.0 | 0.00 | 0.05 | 0.05 | 44 | 1010.5 |
| 20260503130214 | 59 | 326 | 3.0 | 14.0 | 0.00 | 0.05 | 0.05 | 44 | 1010.8 |
| 20260503110215 | 53 | 304 | 7.0 | 16.0 | 0.00 | 0.05 | 0.05 | 64 | 1011.2 |
| 20260503100216 | 54 | 306 | 8.0 | 18.0 | 0.00 | 0.05 | 0.05 | 57 | 1011.0 |
| 20260503081115 | 53 | 273 | 5.0 | 14.0 | 0.00 | 0.05 | 0.05 | 62 | 1010.7 |
| 20260503072916 | 55 | 276 | 0.0 | 6.0 | 0.00 | 0.05 | 0.05 | 58 | 1010.5 |
| 20260503072013 | 52 | 296 | 4.0 | 8.0 | 0.00 | 0.05 | 0.05 | 62 | 1010.6 |
| 20260503071115 | 51 | 316 | 2.0 | 15.0 | 0.00 | 0.05 | 0.05 | 65 | 1010.4 |
| 20260503070218 | 49 | 314 | 2.0 | 17.0 | 0.00 | 0.05 | 0.05 | 68 | 1010.6 |